This demonstration page uses our WeatherBlox Daily Observations layout. Learn more.

Left ArrowRight Arrow

39.51506, -84.39828

Hourly Observations for February 26, 2021

Temp ( °F °C ) Dew Point ( °F °C ) Humidity (%) Winds ( mph kmh ) Pressure ( in mb ) Visibility ( mi km ) Precip ( " mm )
12:15 am 00:15 Partly Cloudy 32 -0.2 28 -2.4 85 85 NE 3 6 30.38 1029 10 16 0.00 0.00
12:35 am 00:35 Cloudy 32 0 28 -2.4 84 84 Calm 30.38 1029 10 16 0.00 0.00
12:55 am 00:55 Cloudy 32 0.1 29 -1.9 87 87 NE 3 6 30.38 1029 10 16 0.00 0.00
1:15 am 01:15 Partly Cloudy 31 -0.7 28 -2.2 90 90 NE 3 6 30.38 1029 10 16 0.00 0.00
1:35 am 01:35 Mostly Cloudy 31 -0.8 28 -2.2 90 90 NNE 3 6 30.38 1029 10 16 0.00 0.00
1:55 am 01:55 Cloudy 28 -2.3 26 -3.3 93 93 Calm 30.40 1030 10 16 0.00 0.00
2:15 am 02:15 Partly Cloudy 29 -1.7 27 -2.6 94 94 Calm 30.39 1029 10 16 0.00 0.00
2:35 am 02:35 Clear 29 -1.7 27 -2.6 94 94 N 3 6 30.40 1029 10 16 0.00 0.00
2:55 am 02:55 Clear 30 -1.1 28 -2.3 92 92 N 3 6 30.40 1029 10 16 0.00 0.00
3:15 am 03:15 Partly Cloudy 29 -1.5 28 -2.4 94 94 N 3 6 30.39 1029 10 16 0.00 0.00
3:35 am 03:35 Partly Cloudy 28 -2.3 27 -3 95 95 N 3 6 30.38 1029 10 16 0.00 0.00
3:55 am 03:55 Clear 27 -2.6 26 -3.2 96 96 NNE 5 7 30.39 1029 10 16 0.00 0.00
4:15 am 04:15 Clear 27 -2.8 26 -3.5 95 95 NNE 3 6 30.39 1029 10 16 0.00 0.00
4:35 am 04:35 Clear 26 -3.2 26 -3.5 98 98 NNE 5 7 30.39 1029 10 16 0.00 0.00
4:55 am 04:55 Clear 26 -3.2 26 -3.6 97 97 NNE 5 7 30.38 1029 10 16 0.00 0.00
5:15 am 05:15 Clear 26 -3.6 25 -4 97 97 NNE 5 7 30.39 1029 10 16 0.00 0.00
5:35 am 05:35 Clear 26 -3.2 26 -3.5 98 98 NNE 3 6 30.39 1029 10 16 0.00 0.00
5:55 am 05:55 Clear 25 -3.9 24 -4.3 97 97 NNE 5 7 30.39 1029 10 16 0.00 0.00
6:15 am 06:15 Clear 24 -4.5 22 -5.3 94 94 Calm 30.40 1029 10 16 0.00 0.00
6:35 am 06:35 Clear 26 -3.4 25 -3.8 97 97 NNE 5 7 30.38 1029 7 11 0.00 0.00
6:55 am 06:55 Clear 26 -3.1 25 -4 94 94 NE 3 6 30.37 1029 10 16 0.00 0.00
7:15 am 07:15 Sunny 29 -1.4 26 -3.5 86 86 NE 6 9 30.36 1028 7 11 0.00 0.00
7:35 am 07:35 Sunny 29 -1.5 26 -3.6 86 86 NE 6 9 30.36 1028 7 11 0.00 0.00
7:55 am 07:55 Sunny 30 -1 26 -3.3 85 85 ENE 7 11 30.35 1028 7 11 0.00 0.00
8:15 am 08:15 Sunny 31 -0.4 27 -2.8 84 84 NE 7 11 30.35 1028 7 11 0.00 0.00
8:35 am 08:35 Sunny 32 0.2 28 -2.5 82 82 ENE 7 11 30.33 1027 7 11 0.00 0.00
8:55 am 08:55 Sunny 33 0.8 28 -2.3 80 80 ENE 7 11 30.33 1027 7 11 0.00 0.00
9:15 am 09:15 Sunny 35 1.7 29 -1.9 77 77 E 9 15 30.32 1027 10 16 0.00 0.00
9:35 am 09:35 Sunny 36 2.4 28 -2.1 72 72 E 12 19 30.30 1026 10 16 0.00 0.00
9:55 am 09:55 Sunny 37 2.7 27 -2.7 68 68 E 18 30 30.29 1026 10 16 0.00 0.00
10:15 am 10:15 Sunny 38 3.3 28 -2.5 66 66 E 12 19 30.29 1026 10 16 0.00 0.00
10:35 am 10:35 Sunny 38 3.5 27 -3 63 63 E 15 24 30.30 1026 10 16 0.00 0.00
10:55 am 10:55 Sunny 39 4 27 -2.8 62 62 ESE 9 15 30.29 1026 10 16 0.00 0.00
11:15 am 11:15 Sunny 40 4.2 26 -3.1 59 59 E 7 11 30.29 1026 10 16 0.00 0.00
11:35 am 11:35 Sunny 40 4.2 27 -2.9 60 60 ENE 9 15 30.30 1026 10 16 0.00 0.00
11:55 am 11:55 Sunny 40 4.2 26 -3.4 58 58 E 12 19 30.29 1026 10 16 0.00 0.00
12:15 pm 12:15 Sunny 40 4.4 26 -3.2 58 58 E 9 15 30.28 1026 10 16 0.00 0.00
12:35 pm 12:35 Sunny 40 4.5 26 -3.3 57 57 E 9 15 30.26 1025 10 16 0.00 0.00
12:55 pm 12:55 Partly Cloudy 41 5.1 26 -3.1 56 56 E 9 15 30.25 1024 10 16 0.00 0.00
1:15 pm 13:15 Sunny 42 5.8 26 -3.3 52 52 E 12 19 30.23 1024 10 16 0.00 0.00
1:35 pm 13:35 Sunny 43 6.2 27 -2.8 53 53 ENE 9 15 30.22 1023 10 16 0.00 0.00
1:55 pm 13:55 Sunny 44 6.7 26 -3.4 49 49 E 13 20 30.19 1022 10 16 0.00 0.00
2:15 pm 14:15 Sunny 44 6.8 27 -3 50 50 E 12 19 30.17 1022 10 16 0.00 0.00
2:35 pm 14:35 Mostly Cloudy 45 7.1 26 -3.3 48 48 E 10 17 30.16 1021 10 16 0.00 0.00
2:55 pm 14:55 Mostly Cloudy 47 8.1 26 -3.5 44 44 E 13 20 30.14 1021 10 16 0.00 0.00
3:15 pm 15:15 Cloudy 47 8.5 27 -3 45 45 ESE 12 19 30.13 1020 10 16 0.00 0.00
3:35 pm 15:35 Cloudy 45 7.4 27 -3 48 48 E 12 19 30.14 1021 10 16 0.00 0.00
3:55 pm 15:55 Cloudy 45 7.4 27 -2.8 49 49 ESE 10 17 30.14 1021 10 16 0.00 0.00
4:15 pm 16:15 Cloudy 45 7.3 24 -4.5 43 43 E 13 20 30.12 1020 10 16 0.00 0.00
4:35 pm 16:35 Cloudy 45 7.1 25 -3.9 46 46 ESE 9 15 30.11 1020 10 16 0.00 0.00
4:55 pm 16:55 Cloudy 45 7.2 26 -3.1 48 48 E 8 13 30.10 1019 10 16 0.00 0.00
5:15 pm 17:15 Cloudy 45 7 27 -3 49 49 ESE 6 9 30.10 1019 10 16 0.00 0.00
5:35 pm 17:35 Cloudy 45 7.1 27 -3 49 49 SE 12 19 30.09 1019 10 16 0.00 0.00
5:55 pm 17:55 Cloudy with Light Rain 44 6.8 29 -1.7 55 55 SE 14 22 30.09 1019 10 16 0.00 0.00
6:15 pm 18:15 Cloudy with Light Rain 43 6 31 -0.5 63 63 SE 8 13 30.09 1019 10 16 0.00 0.00
6:35 pm 18:35 Cloudy 42 5.8 32 -0.1 66 66 SSE 10 17 30.08 1019 10 16 0.00 0.00
6:55 pm 18:55 Cloudy with Drizzle 42 5.4 34 0.9 73 73 SSE 12 19 30.08 1019 10 16 0.00 0.00
7:15 pm 19:15 Cloudy with Drizzle 40 4.4 37 2.7 89 89 SE 9 15 30.09 1019 10 16 0.00 0.00
7:35 pm 19:35 Cloudy with Light Rain 39 4.1 38 3.1 93 93 SE 8 13 30.07 1018 10 16 0.00 0.00
7:55 pm 19:55 Cloudy with Drizzle 40 4.2 38 3.2 93 93 SE 7 11 30.07 1018 10 16 0.00 0.00
8:15 pm 20:15 Cloudy with Drizzle 39 4.1 38 3.5 96 96 SE 5 7 30.06 1018 10 16 0.00 0.00
8:35 pm 20:35 Cloudy with Drizzle 40 4.2 38 3.5 95 95 SE 5 7 30.05 1018 10 16 0.00 0.00
8:55 pm 20:55 Cloudy 40 4.2 38 3.5 95 95 SE 6 9 30.04 1017 10 16 0.00 0.00
9:15 pm 21:15 Cloudy with Mist and Fog 40 4.2 39 3.8 97 97 SE 7 11 30.03 1017 7 11 0.00 0.00
9:35 pm 21:35 Cloudy 40 4.3 39 4.1 99 99 SE 7 11 30.03 1017 10 16 0.00 0.00
9:55 pm 21:55 Cloudy 40 4.4 40 4.2 99 99 SSE 7 11 30.03 1017 10 16 0.00 0.00
10:15 pm 22:15 Cloudy with Mist and Fog 40 4.6 40 4.5 99 99 SE 5 7 30.03 1017 7 11 0.00 0.00
10:35 pm 22:35 Cloudy 41 5 41 5 100 100 SSE 12 19 30.03 1017 7 11 0.00 0.00
10:55 pm 22:55 Cloudy with Drizzle 41 5 41 5 100 100 SSE 7 11 30.02 1017 5 8 0.00 0.00
11:15 pm 23:15 Cloudy with Haze 41 5 N/A N/A SE 5 7 30.00 1016 7 11 0.00 0.00
11:35 pm 23:35 Cloudy 41 5 N/A N/A SSE 5 7 30.01 1016 7 11 0.00 0.00
11:55 pm 23:55 Cloudy 43 6 N/A N/A S 8 13 30.00 1016 10 16 0.00 0.00

Powered by AerisWeather